W5GGH Weather Reports


time (UTC)temp
F
wind
direction
speed
knots
gust
knots
rain 1hr
in
rain 24hr
in
rain mn
in
humidity
%
barometer
mb
20260506124211 55 38 2.6 7.0 0.00 0.00 0.00 76 1030.1
20260506123708 55 11 2.6 7.0 0.00 0.00 0.00 75 1030.0
20260506123207 55 19 2.6 6.1 0.00 0.00 0.00 74 1029.7
20260506122703 56 9 3.5 6.1 0.00 0.00 0.00 74 1030.0
20260506122201 56 20 7.0 7.0 0.00 0.00 0.00 74 1030.0
20260506121658 56 335 5.2 8.7 0.00 0.00 0.00 74 1030.1
20260506121154 56 302 6.1 6.1 0.00 0.00 0.00 74 1029.5
20260506120653 56 354 2.6 4.3 0.00 0.00 0.00 74 1029.4
20260506120150 56 336 3.5 5.2 0.00 0.00 0.00 74 1029.5
20260506115648 57 343 3.5 6.1 0.00 0.00 0.00 74 1029.4
20260506115146 57 1 2.6 7.8 0.00 0.00 0.00 74 1029.4
20260506114643 57 323 3.5 4.3 0.00 0.00 0.00 74 1029.4
20260506114141 57 14 1.7 5.2 0.00 0.00 0.00 73 1029.5
20260506113639 57 1 2.6 5.2 0.00 0.00 0.00 73 1029.3
20260506113136 57 43 3.5 6.1 0.00 0.00 0.00 73 1029.2
20260506112632 57 354 4.3 10.4 0.00 0.00 0.00 72 1029.1
20260506112130 57 12 2.6 4.3 0.00 0.00 0.00 73 1029.2
20260506111627 57 73 4.3 5.2 0.00 0.00 0.00 73 1028.8
20260506111125 58 14 3.5 7.0 0.00 0.00 0.00 73 1028.8
20260506110622 58 24 2.6 7.8 0.00 0.00 0.00 74 1028.6
20260506110119 58 354 2.6 4.3 0.00 0.00 0.00 74 1028.5
20260506105616 58 14 2.6 5.2 0.00 0.00 0.00 74 1028.7
20260506105113 58 28 5.2 6.1 0.00 0.00 0.00 74 1028.6
20260506104611 58 359 1.7 7.0 0.00 0.00 0.00 74 1028.5
20260506104108 58 349 2.6 5.2 0.00 0.00 0.00 74 1028.4
20260506103605 58 348 2.6 7.8 0.00 0.00 0.00 73 1028.3
20260506103102 58 87 2.6 8.7 0.00 0.00 0.00 74 1028.2
20260506102600 58 20 2.6 8.7 0.00 0.00 0.00 74 1028.0
20260506102057 58 10 5.2 7.8 0.00 0.00 0.00 74 1027.7
20260506101554 58 12 2.6 7.0 0.00 0.00 0.00 74 1028.0
20260506101051 58 14 4.3 7.0 0.00 0.00 0.00 74 1027.6
20260506100549 58 52 1.7 7.0 0.00 0.00 0.00 74 1027.6
20260506100047 58 19 4.3 6.1 0.00 0.00 0.00 74 1027.8
20260506095546 58 16 5.2 7.0 0.00 0.00 0.00 74 1027.6
20260506095042 59 339 3.5 6.1 0.00 0.00 0.00 75 1027.5
20260506094539 59 356 2.6 5.2 0.00 0.00 0.00 75 1027.4
20260506094037 59 52 1.7 6.1 0.00 0.00 0.00 75 1027.3
20260506093536 59 17 2.6 4.3 0.00 0.00 0.00 74 1027.5
20260506093032 59 28 3.5 6.1 0.00 0.00 0.00 75 1027.5
20260506092530 59 31 1.7 7.0 0.00 0.00 0.00 74 1027.3
20260506092027 59 340 1.7 8.7 0.00 0.00 0.00 74 1027.6
20260506091525 59 3 5.2 5.2 0.00 0.00 0.00 74 1027.3
20260506091022 59 350 1.7 5.2 0.00 0.00 0.00 74 1027.3
20260506090520 59 14 3.5 6.1 0.00 0.00 0.00 75 1027.2
20260506090016 59 38 3.5 3.5 0.00 0.00 0.00 75 1027.5
20260506085513 60 22 5.2 7.0 0.00 0.00 0.00 75 1027.2
20260506085009 60 38 5.2 5.2 0.00 0.00 0.00 75 1027.3
20260506084506 60 7 1.7 4.3 0.00 0.00 0.00 75 1027.0
20260506084002 60 42 4.3 7.0 0.00 0.00 0.00 75 1027.2
20260506083500 60 6 1.7 6.1 0.00 0.00 0.00 75 1027.1
20260506082957 60 6 1.7 4.3 0.00 0.00 0.00 75 1027.0
20260506082454 60 34 1.7 5.2 0.00 0.00 0.00 75 1027.0
20260506081949 60 30 1.7 4.3 0.00 0.00 0.00 76 1026.9
20260506081448 61 25 1.7 6.1 0.00 0.00 0.00 75 1026.7
20260506080945 61 331 2.6 5.2 0.00 0.00 0.00 76 1026.8
20260506080442 61 8 3.5 7.0 0.00 0.00 0.00 76 1026.9
20260506073426 61 29 2.6 2.6 0.00 0.00 0.00 76 1026.7
20260506072923 61 60 1.7 6.1 0.00 0.00 0.00 76 1026.6
20260506072420 61 11 1.7 5.2 0.00 0.00 0.00 76 1026.6
20260506071918 61 25 3.5 5.2 0.00 0.00 0.00 76 1026.6
20260506071416 61 0 2.6 6.1 0.00 0.00 0.00 76 1026.6
20260506070912 62 42 0.9 6.1 0.00 0.00 0.00 76 1026.4
20260506070409 62 18 2.6 6.1 0.00 0.00 0.00 76 1026.4
20260506062347 62 311 2.6 4.3 0.00 0.00 0.00 77 1026.5
20260506061842 62 354 6.1 6.1 0.00 0.00 0.00 76 1026.3
20260506061339 62 341 3.5 5.2 0.00 0.00 0.00 76 1026.4
20260506060837 62 347 3.5 5.2 0.00 0.00 0.00 76 1026.5
20260506060335 63 18 3.5 5.2 0.00 0.00 0.00 76 1026.4
20260506051307 64 345 1.7 3.5 0.00 0.00 0.00 74 1026.4
20260506050805 64 1 2.6 3.5 0.00 0.00 0.00 74 1026.5
20260506050302 65 353 1.7 5.2 0.00 0.00 0.00 73 1026.6
20260506044752 65 35 3.5 6.1 0.00 0.00 0.00 73 1026.4
20260506044250 65 334 3.5 6.1 0.00 0.00 0.00 73 1026.3
20260506043747 66 328 4.3 5.2 0.00 0.00 0.00 73 1026.4
20260506043244 66 4 2.6 6.1 0.00 0.00 0.00 73 1026.4
20260506042743 66 28 2.6 5.2 0.00 0.00 0.00 73 1026.2
20260506042241 67 304 4.3 6.1 0.00 0.00 0.00 73 1026.5
20260506041739 67 43 1.7 5.2 0.00 0.00 0.00 72 1026.2
20260506041236 67 6 1.7 5.2 0.00 0.00 0.00 72 1026.4
20260506040733 67 8 1.7 6.1 0.00 0.00 0.00 71 1026.5
20260506040230 68 54 3.5 8.7 0.00 0.00 0.00 71 1026.2
20260506035727 68 45 6.1 7.0 0.00 0.00 0.00 71 1026.3
20260506035224 68 322 3.5 5.2 0.00 0.00 0.00 70 1026.3
20260506034721 68 26 2.6 7.8 0.00 0.00 0.00 70 1025.9
20260506034218 68 354 1.7 5.2 0.00 0.00 0.00 70 1025.7
20260506033715 68 22 2.6 3.5 0.00 0.00 0.00 69 1025.6
20260506033212 69 17 1.7 5.2 0.00 0.00 0.00 69 1025.6
20260506032709 69 15 4.3 7.0 0.00 0.00 0.00 69 1025.7
20260506032206 69 10 3.5 5.2 0.00 0.00 0.00 69 1025.5
20260506031703 69 6 0.9 7.0 0.00 0.00 0.00 69 1025.3
20260506031200 69 32 2.6 5.2 0.00 0.00 0.00 69 1025.1
20260506030658 69 29 5.2 7.0 0.00 0.00 0.00 69 1024.8
20260506030155 69 343 2.6 5.2 0.00 0.00 0.00 69 1024.9
20260506025652 70 35 3.5 4.3 0.00 0.00 0.00 68 1024.8
20260506025148 70 16 2.6 5.2 0.00 0.00 0.00 68 1024.6
20260506024646 70 29 1.7 3.5 0.00 0.00 0.00 68 1024.8
20260506024142 70 324 2.6 5.2 0.00 0.00 0.00 68 1024.8
20260506023638 70 316 3.5 5.2 0.00 0.00 0.00 68 1024.6
20260506023136 71 348 3.5 4.3 0.00 0.00 0.00 67 1024.4
20260506022633 71 12 4.3 5.2 0.00 0.00 0.00 67 1024.4
20260506022130 71 32 3.5 7.0 0.00 0.00 0.00 67 1024.4
20260506021628 72 49 3.5 7.0 0.00 0.00 0.00 67 1024.2
20260506021125 72 9 1.7 5.2 0.00 0.00 0.00 67 1024.2
20260506020622 72 321 2.6 5.2 0.00 0.00 0.00 67 1024.0
20260506020119 73 41 3.5 6.1 0.00 0.00 0.00 66 1023.9
20260506015617 73 36 4.3 5.2 0.00 0.00 0.00 66 1023.9
20260506015114 73 49 4.3 4.3 0.00 0.00 0.00 65 1023.6
20260506014611 73 2 2.6 7.8 0.00 0.00 0.00 65 1023.2
20260506014106 74 346 3.5 5.2 0.00 0.00 0.00 64 1023.3
20260506013605 74 23 3.5 5.2 0.00 0.00 0.00 65 1023.2
20260506013102 74 10 1.7 9.6 0.00 0.00 0.00 65 1022.9
20260506012558 74 330 2.6 7.8 0.00 0.00 0.00 65 1022.8
20260506012054 74 34 2.6 3.5 0.00 0.00 0.00 65 1022.7
20260506011552 74 359 1.7 5.2 0.00 0.00 0.00 65 1022.3
20260506011048 75 336 0.9 4.3 0.00 0.00 0.00 64 1022.2
20260506010548 75 327 1.7 7.0 0.00 0.00 0.00 64 1022.5
20260506010044 75 343 1.7 3.5 0.00 0.00 0.00 64 1022.4
20260506005541 75 3 1.7 4.3 0.00 0.00 0.00 63 1022.3
20260506005037 76 77 2.6 5.2 0.00 0.00 0.00 63 1022.4
20260506004535 76 14 1.7 3.5 0.00 0.00 0.00 62 1022.4
20260506004031 76 27 3.5 5.2 0.00 0.00 0.00 62 1022.3
20260506003528 77 1 1.7 4.3 0.00 0.00 0.00 61 1022.1
20260506003024 77 19 2.6 4.3 0.00 0.00 0.00 61 1021.9
20260506002520 77 351 2.6 4.3 0.00 0.00 0.00 60 1021.9
20260506002016 77 330 4.3 4.3 0.00 0.00 0.00 59 1022.0
20260506001512 78 356 2.6 5.2 0.00 0.00 0.00 59 1021.9
20260506001010 78 33 5.2 7.0 0.00 0.00 0.00 58 1021.9
20260506000507 78 26 1.7 5.2 0.00 0.00 0.00 58 1022.0
20260506000004 79 26 2.6 6.1 0.00 0.00 0.00 57 1022.0
20260505235502 79 25 1.7 7.0 0.00 0.00 0.00 57 1022.0
20260505234958 80 24 5.2 5.2 0.00 0.00 0.00 58 1021.6
20260505234456 80 49 1.7 5.2 0.00 0.00 0.00 56 1021.5
20260505233952 80 10 6.1 7.8 0.00 0.00 0.00 56 1021.6
20260505233450 81 21 1.7 5.2 0.00 0.00 0.00 58 1021.3
20260505232947 81 5 1.7 4.3 0.00 0.00 0.00 57 1021.3
20260505232445 82 17 3.5 5.2 0.00 0.00 0.00 56 1021.3
20260505231942 82 29 7.0 9.6 0.00 0.00 0.00 56 1021.2
20260505231439 83 65 1.7 6.1 0.00 0.00 0.00 57 1021.0
20260505230937 84 3 1.7 7.0 0.00 0.00 0.00 56 1020.9
20260505230435 85 9 1.7 6.1 0.00 0.00 0.00 55 1021.0
20260505225931 86 336 1.7 5.2 0.00 0.00 0.00 52 1020.7
20260505225428 86 358 1.7 5.2 0.00 0.00 0.00 49 1020.8
20260505224924 87 19 1.7 3.5 0.00 0.00 0.00 46 1020.8
20260505224421 88 353 1.7 3.5 0.00 0.00 0.00 45 1020.6
20260505223918 89 340 2.6 5.2 0.00 0.00 0.00 45 1020.5
20260505223415 89 1 3.5 5.2 0.00 0.00 0.00 46 1020.6
20260505222911 90 43 0.9 4.3 0.00 0.00 0.00 45 1020.5
20260505222408 91 27 4.3 5.2 0.00 0.00 0.00 43 1020.5
20260505221904 93 2 1.7 2.6 0.00 0.00 0.00 43 1020.3
20260505221401 93 0 1.7 3.5 0.00 0.00 0.00 44 1020.4
20260505220858 92 26 1.7 2.6 0.00 0.00 0.00 44 1020.2
20260505220355 92 356 1.7 3.5 0.00 0.00 0.00 43 1020.2
20260505215853 92 356 1.7 2.6 0.00 0.00 0.00 44 1020.1
20260505215351 92 12 1.7 2.6 0.00 0.00 0.00 44 1020.3
20260505214849 92 20 0.9 2.6 0.00 0.00 0.00 43 1020.2
20260505214346 92 330 1.7 2.6 0.00 0.00 0.00 41 1020.1
20260505213843 92 6 1.7 2.6 0.00 0.00 0.00 43 1020.2
20260505213341 93 334 1.7 3.5 0.00 0.00 0.00 41 1020.3
20260505212837 94 318 2.6 2.6 0.00 0.00 0.00 42 1020.3
20260505212334 93 338 1.7 4.3 0.00 0.00 0.00 41 1020.4
20260505211830 94 5 2.6 4.3 0.00 0.00 0.00 40 1020.3
20260505211328 94 310 2.6 2.6 0.00 0.00 0.00 44 1020.4
20260505210824 94 139 0.0 1.7 0.00 0.00 0.00 46 1020.4
20260505210321 94 50 0.9 1.7 0.00 0.00 0.00 47 1020.7
20260505205818 94 19 0.9 1.7 0.00 0.00 0.00 42 1020.6
20260505205316 94 23 0.9 3.5 0.00 0.00 0.00 46 1020.9
20260505204812 94 23 0.9 1.7 0.00 0.00 0.00 46 1020.9
20260505204311 94 50 1.7 1.7 0.00 0.00 0.00 45 1020.9
20260505203808 95 317 2.6 3.5 0.00 0.00 0.00 43 1021.0
20260505203304 94 16 1.7 1.7 0.00 0.00 0.00 44 1020.7
20260505202800 94 117 0.9 2.6 0.00 0.00 0.00 44 1020.9
20260505202256 93 61 0.9 2.6 0.00 0.00 0.00 47 1021.0
20260505201753 92 9 1.7 2.6 0.00 0.00 0.00 49 1021.0
20260505201251 92 14 2.6 2.6 0.00 0.00 0.00 48 1021.2
20260505200749 92 126 0.0 2.6 0.00 0.00 0.00 48 1021.2
20260505200246 92 128 0.0 5.2 0.00 0.00 0.00 47 1021.2
20260505195741 92 29 0.0 4.3 0.00 0.00 0.00 46 1021.2
20260505195239 92 28 0.0 4.3 0.00 0.00 0.00 47 1021.3
20260505194736 93 345 2.6 2.6 0.00 0.00 0.00 47 1021.4
20260505194232 92 1 1.7 3.5 0.00 0.00 0.00 49 1021.6
20260505193728 92 0 0.9 3.5 0.00 0.00 0.00 50 1021.5
20260505193226 91 49 1.7 2.6 0.00 0.00 0.00 54 1021.4
20260505192724 91 145 0.0 2.6 0.00 0.00 0.00 53 1021.7
20260505192221 91 145 0.0 2.6 0.00 0.00 0.00 55 1021.5
20260505191719 90 33 0.0 1.7 0.00 0.00 0.00 56 1021.6
20260505191218 90 273 1.7 2.6 0.00 0.00 0.00 57 1021.6
20260505190714 90 66 0.0 3.5 0.00 0.00 0.00 55 1021.3
20260505190213 90 185 1.7 3.5 0.00 0.00 0.00 55 1021.2
20260505185710 89 287 1.7 3.5 0.00 0.00 0.00 55 1021.4
20260505185207 89 121 1.7 4.3 0.00 0.00 0.00 57 1021.6
20260505184703 89 21 0.9 1.7 0.00 0.00 0.00 63 1021.4
20260505184200 89 142 1.7 2.6 0.00 0.00 0.00 58 1021.7
20260505183657 89 57 1.7 3.5 0.00 0.00 0.00 59 1021.7
20260505183155 89 53 1.7 2.6 0.00 0.00 0.00 61 1021.7
20260505182650 88 12 1.7 4.3 0.00 0.00 0.00 61 1021.8
20260505182148 88 352 1.7 3.5 0.00 0.00 0.00 60 1021.8
20260505181644 88 57 1.7 3.5 0.00 0.00 0.00 62 1022.0
20260505181142 87 353 1.7 4.3 0.00 0.00 0.00 61 1021.8
20260505180638 87 349 0.9 4.3 0.00 0.00 0.00 63 1021.9
20260505180135 86 133 1.7 3.5 0.00 0.00 0.00 63 1022.1
20260505175631 86 19 1.7 3.5 0.00 0.00 0.00 64 1022.0
20260505175128 86 326 1.7 2.6 0.00 0.00 0.00 65 1021.8
20260505174624 86 222 1.7 3.5 0.00 0.00 0.00 63 1022.0
20260505174120 85 135 0.0 2.6 0.00 0.00 0.00 64 1022.1
20260505173617 85 183 0.9 3.5 0.00 0.00 0.00 65 1022.0
20260505173114 84 36 1.7 3.5 0.00 0.00 0.00 65 1022.0
20260505172612 84 20 0.0 3.5 0.00 0.00 0.00 66 1022.3
20260505172108 84 298 1.7 3.5 0.00 0.00 0.00 67 1022.1
20260505171603 83 198 0.0 4.3 0.00 0.00 0.00 67 1022.1
20260505171100 82 69 1.7 2.6 0.00 0.00 0.00 68 1022.3
20260505170557 82 320 1.7 1.7 0.00 0.00 0.00 69 1022.2
20260505170053 82 123 0.9 2.6 0.00 0.00 0.00 68 1022.3
20260505165548 82 308 2.6 3.5 0.00 0.00 0.00 68 1022.2
20260505165045 82 137 0.9 4.3 0.00 0.00 0.00 69 1022.2
20260505164540 83 91 1.7 3.5 0.00 0.00 0.00 67 1022.3
20260505164038 83 92 1.7 4.3 0.00 0.00 0.00 68 1022.2
20260505163537 82 49 0.9 3.5 0.00 0.00 0.00 68 1022.1
20260505163033 82 239 0.0 2.6 0.00 0.00 0.00 70 1021.9
20260505162532 81 75 1.7 3.5 0.00 0.00 0.00 71 1021.9
20260505162029 80 115 0.9 2.6 0.00 0.00 0.00 71 1021.9
20260505161526 80 310 1.7 2.6 0.00 0.00 0.00 72 1021.7
20260505161023 80 171 2.6 4.3 0.00 0.00 0.00 71 1021.8
20260505160521 80 13 0.9 2.6 0.00 0.00 0.00 71 1021.8
20260505152957 77 71 1.7 3.5 0.00 0.00 0.00 76 1022.0
20260505152455 77 18 2.6 3.5 0.00 0.00 0.00 76 1021.9
20260505151950 77 30 1.7 5.2 0.00 0.00 0.00 76 1022.1
20260505151445 77 126 1.7 3.5 0.00 0.00 0.00 76 1021.9
20260505150943 77 5 0.9 2.6 0.00 0.00 0.00 77 1021.9
20260505150440 77 133 0.9 6.1 0.00 0.00 0.00 76 1021.9
20260505140410 74 34 1.7 3.5 0.00 0.00 0.00 82 1021.8
20260505124823 71 65 0.9 3.5 0.00 0.00 0.00 87 1021.4